This demonstration page uses our WeatherBlox Daily Observations layout. Learn more.

Left ArrowRight Arrow

40.92945, -100.16068

Hourly Observations for October 20, 2016

Temp ( °F °C ) Dew Point ( °F °C ) Humidity (%) Winds ( mph kmh ) Pressure ( in mb ) Visibility ( mi km ) Precip ( " mm )
12:15 am 00:15 Cloudy 45 7 44 6.4 96 96 WNW 6 9 30.36 1028 10 16 N/A
12:35 am 00:35 Cloudy 46 7.5 44 6.7 95 95 WNW 5 7 30.36 1028 10 16 N/A
12:55 am 00:55 Cloudy 45 7 43 6.1 94 94 WNW 5 7 30.36 1028 10 16 N/A
1:15 am 01:15 Mostly Cloudy 44 6.6 42 5.7 94 94 NNW 3 6 30.36 1028 10 16 N/A
1:35 am 01:35 Partly Cloudy 44 6.5 42 5.7 95 95 N 5 7 30.39 1029 10 16 N/A
1:55 am 01:55 Clear 44 6.5 42 5.6 94 94 NW 3 6 30.39 1029 10 16 N/A
2:15 am 02:15 Partly Cloudy 43 6.2 42 5.4 95 95 NW 3 6 30.39 1029 10 16 N/A
2:35 am 02:35 Cloudy 44 6.9 43 6 94 94 NNW 5 7 30.36 1028 10 16 N/A
2:55 am 02:55 Cloudy 45 7.3 44 6.5 95 95 NNW 5 7 30.39 1029 10 16 N/A
3:15 am 03:15 Cloudy 45 7.3 44 6.5 95 95 N N/A 30.39 1029 10 16 N/A
3:35 am 03:35 Cloudy 44 6.9 43 6 94 94 NW 3 6 30.39 1029 10 16 N/A
3:55 am 03:55 Cloudy 45 7 43 6 93 93 NNW 3 6 30.39 1029 10 16 N/A
4:15 am 04:15 Cloudy 44 6.5 42 5.6 94 94 NW 5 7 30.42 1030 10 16 N/A
4:35 am 04:35 Cloudy 44 6.8 43 6 95 95 N N/A 30.42 1030 10 16 N/A
4:55 am 04:55 Cloudy 44 6.8 43 6 95 95 NNW 3 6 30.45 1031 10 16 N/A
5:15 am 05:15 Cloudy 45 7 43 6 93 93 N 3 6 30.45 1031 10 16 N/A
5:35 am 05:35 Cloudy 44 6.5 42 5.5 93 93 NNW 3 6 30.45 1031 10 16 N/A
5:55 am 05:55 Cloudy 44 6.5 42 5.5 93 93 N 3 6 30.45 1031 10 16 N/A
6:15 am 06:15 Cloudy 43 6.3 42 5.3 93 93 N N/A 30.45 1031 10 16 N/A
6:35 am 06:35 Cloudy with Drizzle 44 6.5 42 5.5 93 93 N N/A 30.45 1031 10 16 N/A
6:55 am 06:55 Cloudy 43 6.2 41 5.2 93 93 WNW 3 6 30.45 1031 10 16 N/A
7:15 am 07:15 Cloudy 44 6.5 42 5.6 94 94 WNW 6 9 30.45 1031 10 16 N/A
7:35 am 07:35 Cloudy 44 6.8 43 6 95 95 WNW 3 6 30.45 1031 10 16 N/A
7:55 am 07:55 Cloudy 44 6.5 42 5.6 94 94 W 6 9 30.45 1031 10 16 N/A
8:15 am 08:15 Cloudy 44 6.6 42 5.7 94 94 N N/A 30.45 1031 10 16 N/A
8:35 am 08:35 Mostly Cloudy 43 6.3 42 5.5 95 95 WNW 5 7 30.45 1031 10 16 N/A
8:55 am 08:55 Mostly Cloudy with Drizzle 45 7 43 6.1 94 94 WNW 3 6 30.45 1031 10 16 N/A
9:15 am 09:15 Mostly Cloudy 45 7.4 44 6.6 95 95 WNW 6 9 30.42 1030 10 16 N/A
9:35 am 09:35 Partly Cloudy 47 8.5 44 6.8 89 89 WNW 6 9 30.42 1030 10 16 N/A
9:55 am 09:55 Sunny 48 9 44 6.7 86 86 WNW 7 11 30.42 1030 10 16 N/A
10:15 am 10:15 Mostly Cloudy 49 9.4 44 6.7 83 83 WNW 6 9 30.42 1030 10 16 N/A
10:35 am 10:35 Mostly Cloudy 49 9.3 44 6.5 83 83 WNW 9 15 30.42 1030 10 16 N/A
10:55 am 10:55 Mostly Cloudy 49 9.3 44 6.4 82 82 W 5 7 30.42 1030 10 16 N/A
11:15 am 11:15 Mostly Cloudy 49 9.7 43 6.1 78 78 WNW 7 11 30.42 1030 10 16 N/A
11:35 am 11:35 Mostly Cloudy 50 10.1 43 6 76 76 WNW 14 22 30.42 1030 10 16 N/A
11:55 am 11:55 Partly Cloudy 51 10.4 42 5.8 73 73 NW 10 17 30.39 1029 10 16 N/A
12:15 pm 12:15 Partly Cloudy 53 11.5 42 5.6 67 67 WNW 12 19 30.39 1029 10 16 N/A
12:35 pm 12:35 Partly Cloudy 53 11.4 41 4.9 65 65 NW 10 17 30.39 1029 10 16 N/A
12:55 pm 12:55 Partly Cloudy 53 11.8 41 5 63 63 NW 12 19 30.39 1029 10 16 N/A
1:15 pm 13:15 Partly Cloudy 54 12.2 40 4.5 60 60 NW 10 17 30.39 1029 10 16 N/A
1:35 pm 13:35 Partly Cloudy 55 12.6 38 3.5 54 54 NW 17 28 30.39 1029 10 16 N/A
1:55 pm 13:55 Mostly Cloudy 56 13.1 40 4.2 55 55 N 13 20 30.39 1029 10 16 N/A
2:15 pm 14:15 Partly Cloudy 56 13.2 38 3.6 52 52 NW 9 15 30.33 1027 10 16 N/A
2:35 pm 14:35 Partly Cloudy 56 13.6 38 3.1 49 49 NNW 8 13 30.33 1027 10 16 N/A
2:55 pm 14:55 Partly Cloudy 57 13.7 37 2.9 48 48 WNW 8 13 30.30 1026 10 16 N/A
3:15 pm 15:15 Partly Cloudy 57 14.1 37 2.9 47 47 N 7 11 30.30 1026 10 16 N/A
3:35 pm 15:35 Partly Cloudy 56 13.3 37 2.8 49 49 NW 6 9 30.30 1026 10 16 N/A
3:55 pm 15:55 Partly Cloudy 59 14.9 37 2.5 43 43 NW 6 9 30.30 1026 10 16 N/A
4:15 pm 16:15 Partly Cloudy 58 14.7 36 2.2 43 43 N 7 11 30.30 1026 10 16 N/A
4:35 pm 16:35 Partly Cloudy 58 14.7 36 2 43 43 NNW 7 11 30.30 1026 10 16 N/A
4:55 pm 16:55 Partly Cloudy 59 15 35 1.7 41 41 N 5 7 30.30 1026 10 16 N/A
5:15 pm 17:15 Partly Cloudy 58 14.6 35 1.7 42 42 NNE 6 9 30.27 1025 10 16 N/A
5:35 pm 17:35 Sunny 58 14.2 35 1.6 43 43 N 3 6 30.27 1025 10 16 N/A
5:55 pm 17:55 Sunny 57 14 36 2.1 45 45 N N/A 30.27 1025 10 16 N/A
6:15 pm 18:15 Sunny 56 13.5 37 2.9 49 49 N N/A 30.27 1025 10 16 N/A
6:35 pm 18:35 Sunny 56 13.5 35 1.4 44 44 N N/A 30.27 1025 10 16 N/A
6:55 pm 18:55 Clear 51 10.6 35 1.9 55 55 N N/A 30.30 1026 10 16 N/A
7:15 pm 19:15 Clear 49 9.4 35 1.8 59 59 ESE 3 6 30.30 1026 10 16 N/A
7:35 pm 19:35 Clear 47 8.1 35 1.5 63 63 SE 6 9 30.33 1027 10 16 N/A
7:55 pm 19:55 Clear 46 7.9 35 1.5 64 64 SE 5 7 30.33 1027 10 16 N/A
8:15 pm 20:15 Clear 44 6.7 34 1 67 67 SE 5 7 30.33 1027 10 16 N/A
8:35 pm 20:35 Clear 45 7 34 1.2 67 67 SSE 3 6 30.33 1027 10 16 N/A
8:55 pm 20:55 Clear 42 5.7 34 0.9 72 72 N N/A 30.36 1028 10 16 N/A
9:15 pm 21:15 Clear 44 6.5 34 1.3 70 70 SE 3 6 30.33 1027 10 16 N/A
9:35 pm 21:35 Clear 43 6.1 34 1.2 71 71 SE 5 7 30.36 1028 10 16 N/A
9:55 pm 21:55 Clear 42 5.4 34 0.9 73 73 SSE 6 9 30.36 1028 10 16 N/A
10:15 pm 22:15 Clear 39 3.7 32 0.1 78 78 SSE 6 9 30.36 1028 10 16 N/A
10:35 pm 22:35 Clear 40 4.7 33 0.5 74 74 SE 6 9 30.36 1028 10 16 N/A
10:55 pm 22:55 Clear 41 4.9 33 0.7 75 75 SSE 7 11 30.33 1027 10 16 N/A
11:15 pm 23:15 Clear 40 4.3 33 0.6 77 77 SSE 7 11 30.33 1027 10 16 N/A
11:35 pm 23:35 Clear 41 5 34 1.1 76 76 SE 5 7 30.33 1027 10 16 N/A
11:55 pm 23:55 Clear 40 4.5 33 0.5 76 76 SSE 6 9 30.33 1027 10 16 N/A

Powered by AerisWeather